Flag for U.S.A. Weather past 2 weeks in Post Falls, Idaho, U.S.A.

Now
88 °F

Sunny.


Feels Like: 86 °F
Forecast: 62 / 96 °F
Wind: No wind

Location: Coeur d'Alene Weather Reporting System

Current Time: Jul 30, 2014 at 7:58:09 PM

Latest Report: Jul 30, 2014 at 7:35 PM


Visibility: 10 mi

Pressure: 29.95 "Hg

Humidity: 31%

Dew point: 54 °F

Location of Post FallsLocation

Historic Weather in Post Falls — Graph

°F

Post Falls temperature yesterday

Maximum temperature yesterday: 99 °F (at 2:35 PM)
Minimum temperature yesterday: 61 °F (at 3:15 AM)
Average temperature yesterday: 79 °F

Past Weeks' High & Low Weather Summary

 TemperatureHumidityPressure
High99 °F (Jul 29, 2:35 PM)94% (Jul 24, 1:55 AM)30.20 "Hg (Jul 24, 1:55 AM)
Low48 °F (Jul 26, 4:35 AM)11% (Jul 21, 5:55 AM)29.74 "Hg (Jul 17, 7:55 PM)
Average71 °F50%29.99 "Hg
* Reported Jul 15 6:15 PM — Jul 30 6:55 PM, Post Falls, Weather by CustomWeather, © 2014

Note: Actual official high and low records may vary slightly from our data, if they occured in-between our weather recording intervals... More about our weather records

Advertising

Post Falls weather history for previous 24 hours

 ConditionsComfort  
Time TempWeatherWind HumidityBarometerVisibility
6:55 PM
Jul 30
93 °FSunny.No wind21%29.97 "Hg10 mi
6:35 PM93 °FSunny.3 mph20%29.97 "Hg10 mi
6:15 PM95 °FSunny.6 mph16%29.97 "Hg10 mi
5:55 PM97 °FSunny.No wind14%29.96 "Hg10 mi
5:35 PM97 °FSunny.No wind13%29.98 "Hg10 mi
4:55 PM97 °FSunny.8 mph14%29.98 "Hg10 mi
4:35 PM97 °FSunny.10 mph17%29.99 "Hg10 mi
4:15 PM97 °FSunny.9 mph17%29.99 "Hg10 mi
3:55 PM97 °FSunny.6 mph19%29.99 "Hg10 mi
3:35 PM95 °FSunny.No wind20%30.01 "Hg10 mi
3:15 PM95 °FSunny.7 mph20%30.00 "Hg10 mi
2:55 PM95 °FSunny.6 mph23%30.02 "Hg10 mi
2:35 PM93 °FSunny.No wind24%30.02 "Hg10 mi
1:55 PM91 °FSunny.3 mph28%30.04 "Hg5 mi
1:35 PM91 °FSunny.3 mph28%30.05 "Hg10 mi
1:15 PM91 °FSunny.5 mph28%30.06 "Hg10 mi
12:55 PM91 °FSunny.No wind28%30.04 "Hg10 mi
12:35 PM90 °FSunny.No wind21%30.05 "Hg10 mi
12:15 PM90 °FSunny.No wind26%30.04 "Hg10 mi
11:55 AM88 °FSunny.No wind25%30.04 "Hg10 mi
11:35 AM88 °FSunny.No wind25%30.05 "Hg10 mi
10:55 AM84 °FSunny.No wind33%30.05 "Hg10 mi
10:35 AM82 °FSunny.3 mph35%30.06 "Hg10 mi
10:15 AM81 °FSunny.No wind37%30.05 "Hg10 mi
9:55 AM79 °FSunny.7 mph39%30.07 "Hg10 mi
9:35 AM79 °FSunny.5 mph39%30.08 "Hg10 mi
9:15 AM79 °FSunny.3 mph37%30.08 "Hg10 mi
8:55 AM75 °FSunny.No wind47%30.08 "Hg10 mi
8:35 AM73 °FSunny.No wind47%30.06 "Hg10 mi
8:15 AM73 °FSunny.No wind44%30.08 "Hg10 mi
7:55 AM72 °FSunny.No wind50%30.08 "Hg10 mi
7:35 AM70 °FSunny.No wind53%30.07 "Hg10 mi
7:15 AM66 °FSunny.5 mph60%30.07 "Hg10 mi
6:55 AM63 °FSunny.5 mph59%30.07 "Hg10 mi
6:35 AM61 °FSunny.No wind72%30.06 "Hg10 mi
6:15 AM59 °FClear.6 mph68%30.06 "Hg10 mi
5:55 AM57 °FClear.7 mph72%30.06 "Hg10 mi
5:35 AM59 °FClear.9 mph68%30.06 "Hg10 mi
5:15 AM61 °FClear.9 mph63%30.05 "Hg10 mi
4:55 AM61 °FClear.3 mph63%30.05 "Hg10 mi
4:35 AM61 °FClear.No wind63%30.04 "Hg10 mi
4:15 AM64 °FClear.6 mph64%30.04 "Hg10 mi
3:55 AM64 °FClear.8 mph64%30.04 "Hg10 mi
3:35 AM63 °FClear.7 mph64%30.03 "Hg10 mi
3:15 AM61 °FClear.6 mph63%30.03 "Hg10 mi
2:55 AM61 °FClear.3 mph68%30.03 "Hg10 mi
2:35 AM61 °FClear.5 mph68%30.03 "Hg10 mi
2:15 AM63 °FClear.5 mph68%30.03 "Hg10 mi
1:55 AM63 °FClear.7 mph64%30.03 "Hg10 mi
1:35 AM63 °FClear.6 mph68%30.02 "Hg10 mi
1:15 AM63 °FClear.No wind68%30.02 "Hg10 mi
12:55 AM63 °FClear.6 mph68%30.02 "Hg10 mi
12:35 AM64 °FClear.No wind64%30.02 "Hg10 mi
12:15 AM64 °FClear.5 mph64%30.01 "Hg10 mi
11:55 PM
Jul 29
66 °FClear.6 mph64%30.01 "Hg10 mi
11:35 PM66 °FClear.5 mph60%30.01 "Hg10 mi
11:15 PM70 °FClear.No wind60%30.01 "Hg10 mi
10:55 PM72 °FClear.6 mph57%30.00 "Hg10 mi
10:35 PM72 °FClear.5 mph53%30.00 "Hg10 mi
10:15 PM73 °FClear.5 mph50%30.00 "Hg10 mi
9:55 PM73 °FClear.7 mph50%30.00 "Hg10 mi
9:35 PM75 °FClear.7 mph47%30.00 "Hg10 mi
9:15 PM79 °FSunny.3 mph39%29.99 "Hg10 mi
8:55 PM82 °FSunny.5 mph35%29.99 "Hg10 mi
8:35 PM81 °FSunny.6 mph37%29.98 "Hg10 mi
7:55 PM88 °FSunny.No wind31%29.96 "Hg10 mi
7:35 PM90 °FSunny.No wind36%29.96 "Hg10 mi
7:15 PM95 °FSunny.No wind16%29.96 "Hg10 mi
Weather by CustomWeather, © 2014

See weather overviewHow to use our weather pages